Wind_Speed
6 5 10 8 4 6 11 13 15 15 17 12 10 12 15 15 14 13 23 17 19 18 15 13 12 11 10 10 11 11 12 13 14 14 15 16 18 18 17 16 18 18 17 17 17 17 16 16 16
8 3 8 5 5 11 12 14 16 12 14 13 10 11 13 14 16 20 19 19 18 19 17 13 12 10 10 10 10 11 12 12 12 14 15 16 16 16 17 17 17 17 16 17 17 16 16 16 15
6 4 3 5 5 13 14 15 13 16 16 12 7 17 12 17 17 18 24 20 22 17 15 13 11 9 9 10 10 11 11 12 12 14 15 15 15 16 16 17 16 16 15 14 14 15 15 14 14
8 6 1 6 9 11 17 15 16 19 9 9 17 13 21 15 16 23 21 23 19 15 17 13 11 11 10 10 11 11 12 13 13 14 14 15 15 16 16 16 15 16 16 15 13 12 11 13 13
6 3 2 5 13 15 17 17 17 17 11 13 12 21 16 16 25 21 20 18 18 20 15 14 12 12 11 10 11 11 12 12 13 13 14 14 15 15 15 15 15 15 16 16 15 15 14 12 13
2 1 1 9 11 10 13 16 18 12 12 7 22 20 15 22 21 21 21 21 18 19 16 14 13 13 12 11 11 13 12 12 13 14 14 16 15 15 15 14 14 15 15 15 14 13 13 13 13
2 0 7 9 10 15 14 16 15 15 13 14 19 18 14 19 20 17 16 16 15 21 16 15 13 13 13 13 12 13 14 14 15 15 16 15 15 14 13 13 13 13 12 13 13 13 13 12 12
2 2 6 6 14 12 13 12 11 12 9 15 17 10 19 20 20 18 17 15 16 20 18 14 14 13 14 13 13 13 14 15 15 15 15 16 15 14 13 13 12 11 11 11 12 12 11 13 14
5 3 8 10 17 12 11 11 12 6 10 8 6 22 24 23 20 19 15 20 19 14 13 14 14 15 14 12 12 13 14 14 16 14 14 16 15 13 12 11 11 10 10 10 11 11 6 10 16
6 3 5 4 11 19 17 15 11 12 12 9 15 24 24 21 19 19 16 14 16 18 12 10 14 13 12 15 13 11 11 13 13 10 6 7 14 14 13 10 10 9 9 10 9 8 5 3 8
3 3 3 6 5 17 17 14 13 13 11 15 20 24 23 21 19 18 16 16 18 17 17 19 11 14 12 13 12 13 12 12 12 10 11 13 13 13 12 9 9 6 3 3 3 2 3 7 6
2 2 0 7 4 10 14 13 9 8 14 16 20 24 22 18 18 16 14 16 19 12 11 14 12 8 10 9 10 11 15 14 13 13 11 10 9 9 5 8 9 5 7 4 6 9 6 8 4
4 6 12 7 4 9 12 11 9 7 15 18 21 21 20 17 18 17 13 16 15 14 13 14 12 10 8 8 11 10 14 11 14 12 8 10 9 8 9 2 7 3 6 7 5 7 6 7 6
7 9 12 3 7 6 11 13 12 14 16 21 20 20 18 16 18 16 14 15 14 15 14 14 15 14 9 12 9 12 14 13 14 12 8 6 8 4 7 6 6 2 8 7 8 4 5 8 10
7 12 11 3 1 4 8 14 14 14 20 21 20 17 16 16 17 16 15 15 16 14 15 14 14 13 13 13 13 10 14 13 12 12 8 4 5 1 3 4 1 7 5 6 5 5 4 8 9
9 9 9 7 4 3 7 12 16 16 19 20 20 17 15 15 17 15 16 15 15 17 16 15 15 16 15 14 11 11 11 12 12 11 8 6 5 4 3 5 5 5 2 4 1 3 5 4 7
2 5 11 8 2 2 6 12 11 18 19 19 18 17 17 17 18 16 16 16 17 17 17 14 16 16 15 13 9 11 10 13 10 9 10 6 6 3 1 3 5 4 1 1 3 4 5 3 3
5 10 14 10 4 4 3 2 7 16 17 13 16 17 15 17 16 19 18 17 17 18 17 14 16 15 15 10 11 12 9 9 9 7 10 7 6 4 2 4 2 6 1 4 9 8 5 5 4
21 13 16 11 9 4 11 9 7 6 5 8 10 14 16 15 21 20 19 20 19 19 17 16 16 16 14 13 12 10 10 9 9 12 8 6 6 5 3 6 4 3 6 8 1 4 3 2 1
8 18 18 10 9 3 7 8 5 8 11 9 11 12 17 16 17 20 13 22 22 20 19 18 17 16 13 13 6 6 15 10 11 10 8 6 6 4 4 1 3 2 4 2 2 6 6 5 2
7 9 12 12 8 6 10 2 10 10 14 10 13 12 20 19 19 18 19 20 22 21 20 20 16 16 14 9 7 6 4 6 7 8 9 8 6 5 1 3 3 2 0 4 1 3 6 4 4
6 21 18 15 18 7 16 2 1 14 11 14 17 12 17 19 20 22 26 22 22 23 20 20 18 16 14 9 11 8 10 11 12 12 8 7 7 6 5 5 3 4 5 3 2 2 7 8 5
9 3 28 29 9 15 20 6 9 20 19 21 20 20 13 11 19 13 22 23 24 25 21 20 19 17 15 14 9 10 14 9 12 8 8 4 8 7 7 6 5 4 4 3 2 1 7 7 9
5 2 5 7 10 7 16 14 15 19 28 29 27 23 19 20 13 26 22 22 20 26 21 21 19 18 15 12 11 9 10 7 0 8 7 12 9 9 6 7 5 5 6 2 4 3 3 7 8
9 13 4 4 8 3 1 9 8 23 24 28 30 27 26 23 14 18 7 28 22 15 24 22 20 19 18 15 12 9 4 3 2 4 10 3 10 8 9 8 6 6 7 3 5 5 2 2 3
14 13 7 6 5 5 14 4 8 16 19 22 27 29 28 24 18 17 31 21 21 29 20 21 21 20 19 17 14 11 9 9 9 9 7 11 11 6 12 8 6 5 5 7 6 8 7 8 4
15 15 13 8 3 9 11 12 15 13 14 21 26 27 29 25 21 12 22 30 23 28 24 21 21 20 19 18 15 13 11 11 7 5 3 13 5 6 8 7 7 7 7 7 6 9 6 5 5
17 11 15 13 13 16 12 11 11 5 10 14 16 24 26 24 23 20 9 16 25 22 23 23 23 20 18 17 16 14 13 10 9 7 10 6 2 1 11 7 7 7 7 7 7 10 10 7 8
12 11 11 16 15 15 7 3 16 21 12 13 15 15 24 19 20 6 6 15 24 22 25 28 27 22 20 17 16 14 13 11 9 8 8 5 3 4 1 4 6 6 8 8 8 10 3 6 7
18 19 17 11 14 12 15 5 8 10 11 8 10 12 18 16 19 14 14 13 20 21 19 19 9 24 22 21 16 15 12 10 12 10 8 7 4 4 5 5 6 7 7 8 9 10 8 8 8
Wind_Direction
203 224 262 253 253 218 109 100 114 117 112 107 76 58 66 27 20 96 135 127 131 128 129 124 123 115 111 106 95 93 90 86 89 92 97 95 96 98 98 99 96 95 96 93 92 87 83 84 84
222 246 251 278 247 127 110 127 121 120 111 112 102 114 82 67 93 117 123 129 136 128 133 122 119 115 105 109 99 96 93 95 96 94 96 97 100 102 101 97 97 98 96 92 91 91 87 86 82
257 286 273 299 265 115 122 126 129 118 126 121 109 56 56 106 113 118 123 135 101 114 115 121 121 120 115 100 112 100 101 99 94 91 92 95 101 102 102 97 93 91 89 92 94 89 87 84 82
209 216 39 282 93 100 123 128 126 131 142 100 109 86 105 87 109 121 135 112 115 120 111 120 118 115 118 110 99 94 90 92 90 95 100 107 108 107 105 97 90 87 85 86 95 89 85 89 82
338 12 330 279 108 118 135 132 137 137 118 112 95 114 106 101 116 130 107 131 140 138 119 117 116 117 112 112 98 99 89 90 98 100 101 107 110 109 105 98 91 87 91 86 84 86 86 85 87
94 232 243 187 137 115 127 137 144 124 110 104 116 122 103 125 129 143 155 156 129 133 115 116 112 109 112 112 103 101 97 100 105 110 103 103 107 111 108 102 94 96 94 85 83 88 88 85 86
151 203 220 160 151 128 137 145 165 127 133 118 138 118 136 130 146 136 125 122 130 101 114 126 115 111 111 111 110 107 100 104 108 109 103 101 108 110 112 107 98 98 89 82 78 85 84 81 80
99 160 213 174 154 144 143 149 126 144 108 127 125 134 142 156 143 136 124 146 101 109 123 119 129 124 118 105 108 104 102 103 108 112 118 112 111 117 122 109 105 100 93 85 81 82 90 86 77
135 225 195 167 149 146 137 136 90 102 134 167 104 135 137 151 146 133 152 128 133 116 117 131 132 122 116 113 110 105 110 110 111 112 129 130 119 114 110 123 109 108 102 92 84 79 101 114 92
213 256 170 321 144 158 166 143 147 152 155 132 126 123 136 154 153 141 155 146 134 133 141 123 129 134 139 120 139 125 142 127 117 124 157 150 92 107 119 120 113 102 89 83 74 87 84 211 179
225 285 211 110 37 148 144 143 161 147 157 141 136 143 160 147 154 157 151 158 137 142 161 122 139 155 135 121 145 143 135 124 118 127 105 111 124 126 121 130 126 130 111 177 103 300 257 39 41
238 329 86 140 270 137 143 144 189 147 139 142 149 151 149 162 157 152 165 138 120 136 139 121 141 124 116 141 157 146 130 133 131 121 122 131 122 110 78 105 120 153 105 108 38 87 74 78 35
148 129 123 135 267 175 139 153 109 108 116 140 147 152 156 161 156 155 159 128 132 147 139 133 136 122 128 149 141 124 128 147 125 141 140 133 102 118 105 106 68 71 113 111 93 88 95 123 112
97 147 117 75 109 175 146 137 128 138 146 142 152 159 159 156 156 150 152 145 153 141 138 139 133 136 155 124 130 143 128 142 145 132 121 107 123 124 133 166 131 80 51 62 64 15 98 119 112
72 151 145 88 54 79 351 170 122 145 147 147 162 160 158 159 147 157 156 156 146 148 140 152 142 140 135 141 153 160 147 144 139 122 132 117 116 129 122 103 82 98 94 162 139 146 143 124 118
170 151 165 159 209 79 293 122 129 154 152 156 158 160 162 156 149 156 159 164 143 143 147 161 146 142 148 144 163 152 149 135 145 146 149 138 120 149 126 186 112 122 193 129 74 148 96 87 93
271 180 182 139 127 111 22 139 148 160 159 168 161 160 168 154 149 154 158 159 153 145 154 166 141 149 141 158 160 141 147 159 153 150 148 141 142 158 314 59 111 235 195 74 143 73 338 150 144
130 256 164 136 131 88 121 128 168 177 167 164 169 164 169 162 153 154 159 148 154 153 160 159 157 148 147 166 166 147 164 175 151 134 123 149 155 171 209 112 145 234 277 120 48 3 13 16 321
143 213 120 93 132 115 181 160 195 265 174 176 191 183 167 172 153 157 157 153 149 160 164 161 159 160 162 162 170 170 149 151 163 121 128 147 151 156 190 175 166 275 122 59 297 235 186 97 295
293 107 104 89 174 114 133 139 197 262 232 230 185 195 186 182 161 157 182 159 159 162 166 169 160 173 193 183 151 181 172 170 164 151 157 177 161 177 188 196 194 98 124 136 342 324 320 96 352
213 137 140 128 192 138 132 82 238 233 255 258 269 280 191 181 180 160 186 177 165 164 169 174 170 178 207 192 179 174 150 137 166 153 182 182 194 181 200 218 16 167 347 162 189 317 324 70 106
250 121 144 162 174 158 201 92 193 194 220 253 243 245 266 189 169 164 202 175 176 164 176 173 183 183 205 192 192 177 198 198 178 192 174 160 191 196 186 206 212 225 320 107 200 305 336 327 125
87 138 141 206 179 141 194 160 177 191 199 215 236 234 242 265 171 187 183 187 180 163 177 178 185 190 199 206 207 194 217 237 199 182 143 176 176 200 200 205 209 227 253 182 349 358 322 332 333
117 166 201 186 244 221 177 229 173 189 202 204 212 226 225 228 198 192 202 178 187 170 170 178 184 193 200 194 199 217 276 285 59 151 166 188 180 187 200 192 207 222 271 197 222 224 281 347 359
196 187 189 248 216 235 112 217 151 192 197 193 201 203 212 215 239 206 180 176 162 172 174 173 180 193 194 192 194 200 214 246 195 209 213 120 198 175 177 192 198 220 234 229 225 221 241 251 313
210 231 193 207 257 213 166 239 119 168 180 192 190 194 200 206 220 234 175 166 188 169 207 178 174 191 191 191 191 199 207 213 234 242 301 222 152 223 156 185 203 221 213 221 213 229 229 216 240
191 216 229 213 248 293 210 129 136 169 166 191 186 187 196 198 212 227 221 174 209 176 177 176 172 187 192 193 187 195 205 239 242 324 193 223 170 145 172 183 204 208 209 225 224 245 226 255 232
264 212 224 222 243 238 189 184 112 115 188 194 199 188 181 200 199 212 192 200 183 182 184 178 173 186 189 197 197 197 207 221 241 232 268 30 359 58 170 169 194 212 214 222 231 244 219 236 252
214 241 248 259 234 264 255 149 148 165 183 187 198 204 173 181 187 202 253 274 174 185 184 185 174 175 186 191 195 202 199 212 220 244 273 298 360 344 357 219 241 235 236 234 236 269 265 212 245
228 209 238 235 232 261 284 104 333 116 139 171 165 171 156 166 173 175 192 253 166 198 185 159 206 175 184 184 191 197 210 210 212 214 233 236 224 226 222 215 211 227 231 231 232 236 248 223 244
Height
780 779 776 772 784 757 772 777 758 768 766 756 755 761 775 777 782 808 802 806 813 818 824 828 830 831 833 833 833 834 834 834 833 836 836 837 837 838 839 839 840 841 842 842 842 842 843 843 843
778 779 776 769 786 767 779 766 774 765 762 763 766 768 784 792 782 793 802 810 812 817 823 828 830 832 834 834 835 836 836 836 838 838 838 839 840 841 842 843 844 845 845 845 845 846 846 846 846
779 779 778 777 766 765 779 768 766 764 763 764 771 771 780 795 792 796 806 810 814 820 824 829 830 833 835 836 837 838 838 839 839 838 839 841 843 844 845 846 846 847 847 847 848 848 848 848 848
775 771 771 790 771 762 762 764 763 769 767 764 769 792 788 794 794 804 808 811 818 823 826 830 832 834 836 837 838 839 839 839 840 841 843 844 846 846 848 849 849 849 850 851 851 851 851 851 851
775 778 802 794 774 761 757 759 762 772 770 771 775 794 798 798 802 807 813 816 820 823 829 833 834 836 837 839 840 840 841 842 843 844 846 848 848 849 850 851 852 853 853 853 853 853 853 853 853
787 786 808 794 776 763 755 757 764 772 775 777 782 793 801 802 806 811 809 812 816 821 828 834 835 837 839 840 841 842 844 845 847 847 849 850 851 851 852 854 854 855 855 855 855 855 855 855 855
788 799 791 779 776 773 766 756 764 770 777 784 779 799 801 803 807 808 810 816 818 823 830 834 837 839 841 842 843 845 846 847 847 849 850 851 852 854 855 856 856 857 858 858 857 857 857 857 856
784 795 783 769 782 790 765 761 759 770 780 770 776 800 804 807 806 809 816 818 821 827 834 836 838 841 842 845 845 846 848 848 849 851 852 853 854 855 857 857 858 859 859 859 859 858 858 858 858
784 800 783 774 776 783 764 776 768 772 775 774 775 785 795 804 807 811 818 818 825 831 833 836 838 842 844 846 847 848 849 850 852 853 853 852 854 857 859 859 859 860 860 860 860 859 858 858 857
780 786 775 759 756 769 764 768 773 776 777 781 780 790 802 804 809 814 816 818 824 831 835 836 837 842 844 846 848 850 852 852 854 856 854 854 856 858 860 861 861 861 860 860 859 858 857 856 856
769 783 775 762 761 752 761 768 763 769 783 781 792 797 803 807 809 813 815 817 823 830 832 836 842 843 844 846 847 848 851 854 857 858 857 858 859 859 860 860 861 861 860 860 858 858 857 857 856
778 768 767 768 766 761 766 765 774 768 772 778 790 795 801 806 808 812 813 817 823 830 834 836 841 844 845 848 847 848 852 855 856 859 859 859 859 860 859 859 861 860 861 862 856 860 861 862 859
769 774 772 771 766 763 762 770 775 778 774 781 790 797 801 803 808 812 814 818 825 830 834 839 844 847 848 848 849 850 852 855 858 859 859 860 861 863 863 863 860 860 861 861 860 861 861 861 860
766 769 779 778 770 766 771 774 775 781 779 785 793 796 799 803 807 813 816 821 827 831 836 842 847 850 850 850 852 854 855 856 858 860 861 861 863 863 864 862 863 863 861 862 863 862 860 859 862
766 779 779 790 785 783 783 784 786 779 781 790 793 795 799 803 808 814 819 823 827 833 839 844 847 849 852 854 854 855 855 857 859 861 865 865 864 865 865 865 864 864 866 865 864 863 861 859 861
776 785 799 796 795 789 787 809 785 782 786 792 792 795 799 803 809 815 820 823 828 834 841 843 844 849 852 854 854 854 856 858 860 862 864 866 867 867 866 865 864 866 864 863 862 861 860 860 860
792 800 798 807 801 801 800 807 788 781 786 790 791 795 797 802 808 815 820 824 830 837 841 843 845 849 852 856 854 856 857 859 859 862 864 866 867 868 866 866 867 867 865 862 861 862 861 861 859
800 805 792 806 813 810 818 817 802 783 786 793 792 794 798 800 806 813 818 823 830 838 842 844 847 851 853 855 856 857 859 859 860 862 864 867 867 868 868 868 868 866 865 865 864 866 864 862 862
778 781 795 806 809 815 820 819 817 803 793 802 801 796 801 803 806 811 817 823 830 837 842 845 847 852 853 856 855 857 858 860 862 862 865 867 868 869 868 869 869 866 866 868 869 867 866 864 864
745 770 802 812 813 812 821 822 823 819 803 805 802 803 800 802 804 810 819 821 828 835 841 845 848 853 853 854 855 856 857 859 860 863 866 867 867 870 869 869 869 869 869 871 870 868 865 864 865
742 786 799 809 813 815 817 834 829 823 816 811 807 806 793 797 803 808 819 818 824 833 839 844 848 852 853 854 856 857 857 859 860 863 865 867 868 870 870 871 869 870 870 871 871 869 868 864 867
759 762 788 809 803 820 805 841 829 824 824 820 811 805 797 787 796 803 810 815 820 828 837 842 848 851 853 853 856 858 859 857 859 860 862 865 867 869 870 871 872 872 871 871 872 871 869 867 864
759 749 782 791 779 783 804 804 811 815 821 820 810 804 795 794 787 796 804 809 815 823 832 839 845 850 851 854 858 857 857 857 855 859 861 864 866 868 868 871 872 873 872 873 873 873 872 868 866
747 760 761 765 767 781 772 769 796 801 789 798 802 800 801 792 787 801 802 807 811 817 827 835 843 848 851 854 856 857 856 856 855 856 859 860 863 865 868 870 872 873 873 874 875 875 874 873 870
753 766 795 798 777 776 760 764 767 762 767 773 780 789 790 789 799 790 801 801 810 816 824 830 839 845 850 853 855 857 857 857 857 856 855 857 859 862 866 869 871 873 873 874 875 875 875 875 875
760 759 782 809 792 762 746 767 761 741 744 745 757 771 781 783 788 791 792 797 808 816 820 825 835 843 847 851 854 857 858 857 857 857 862 859 856 859 863 867 869 871 872 873 875 875 875 874 875
753 765 746 768 799 798 772 745 758 735 740 743 745 760 774 777 783 790 784 792 811 806 816 823 832 840 845 848 852 856 857 857 856 857 865 860 854 857 862 866 868 870 872 873 874 873 874 873 875
742 735 766 758 796 796 765 763 757 759 751 745 741 745 759 769 782 784 785 790 793 805 812 821 828 836 841 846 849 852 855 857 857 859 857 852 853 852 859 864 868 870 871 872 873 872 872 874 874
756 759 751 742 748 765 767 762 740 743 741 744 741 739 749 768 778 789 790 795 791 803 809 817 823 832 838 843 846 849 851 854 855 855 854 853 855 856 860 866 869 870 870 871 872 871 872 872 874
733 747 749 761 769 746 743 781 735 730 732 734 738 741 749 768 775 788 793 795 791 804 808 809 823 827 833 838 843 847 849 852 853 855 856 857 860 862 864 866 868 869 869 870 870 870 869 871 872